Tracking 19570 objects as of 22-Feb-2019
HD Live streaming from Space Station
objects crossing your sky now

COSMOS 447

Track COSMOS 447 now!
10-day predictions
COSMOS 447 is classified as:


NORAD ID: 5550
Int'l Code: 1971-086D
Perigee: 1,417.7 km
Apogee: 1,520.7 km
Inclination: 74.0 °
Period: 115.1 minutes
Semi major axis: 7840 km
RCS: 0.7637 m2 (medium)
Launch date: October 13, 1971
Source: Commonwealth of Independent States (former USSR) (CIS)
Launch site: PLESETSK MISSILE AND SPACE COMPLEX (PKMTR)
aabbcc
Your satellite tracking list
Your tracking list is empty




NASA's NSSDC Master Catalog

Two Line Element Set (TLE):
1  5550U 71086D   19052.07976970 -.00000003  00000-0  86080-4 0  9999
2  5550  74.0258 265.8660 0065723  25.3503  88.4434 12.50578353162185
Source of the keplerian elements: AFSPC